Change the Weather History Date:

Monday, June 24, 2013

  Actual Average Record
Temperature  
Mean Temperature 80 °F -  
Max Temperature 98 °F - - ()
Min Temperature 63 °F - - ()
Cooling Degree Days 16    
Growing Degree Days 30 (Base 50)    
Moisture  
Dew Point 53 °F    
Average Humidity 33    
Maximum Humidity 55    
Minimum Humidity 19    
Precipitation  
Precipitation 0.00 in 0.01 in - ()
Sea Level Pressure  
Sea Level Pressure 30.04 in    
Wind  
Wind Speed 4 mph ()    
Max Wind Speed 12 mph    
Max Gust Speed -    
Visibility 19.0 miles    
Events      
T = Trace of Precipitation, MM = Missing Value Source: Averaged Metar Reports

Daily Weather History Graph

Daily Weather History Graph

Search for Another Location

Airport or City:

Trip Planner

Search our weather history database for the weather conditions in past years. The results will help you decide how hot, cold, wet, or windy it might be!

Date:

Astronomy

Jun. 24, 2013 Rise Set
Actual Time 7:03 AM CEST 9:56 PM CEST
Civil Twilight 6:30 AM CEST 10:28 PM CEST
Nautical Twilight 5:50 AM CEST 11:08 PM CEST
Astronomical Twilight 5:04 AM CEST 11:55 PM CEST
Moon 10:49 PM CEST (6/24) 8:13 AM CEST (6/24)
Length of Visible Light 15h 57m
Length of Day
14h 53m
Full, 99% of the Moon is Illuminated
Jun 24
Full
Jun 30
Last Quarter
Jul 8
New
Jul 16
First Quarter
Jul 22
Full

Hourly Weather History & Observations

Time (CEST) Temp. Heat Index Dew Point Humidity Pressure Visibility Wind Dir Wind Speed Gust Speed Precip Events Conditions
6:00 AM 64.4 °F - 46.4 °F 52% 30.04 in - Calm Calm - N/A   Clear
7:00 AM 62.6 °F - 46.4 °F 55% 30.06 in - Variable 2.3 mph - N/A   Clear
8:00 AM 67 °F - 51 °F 46% 30.06 in 19 mi North 1.2 mph - -  
8:00 AM 66.2 °F - 46.4 °F 49% 30.06 in - Calm Calm - N/A   Clear
9:00 AM 73.4 °F - 51.8 °F 47% 30.06 in - Variable 2.3 mph - N/A   Clear
10:00 AM 80.6 °F 80.5 °F 55.4 °F 42% 30.09 in - East 9.2 mph - N/A   Clear
11:00 AM 82.4 °F 81.4 °F 53.6 °F 37% 30.09 in - East 11.5 mph - N/A   Clear
12:00 PM 86.0 °F 84.5 °F 55.4 °F 35% 30.09 in - East 10.4 mph - N/A   Clear
1:00 PM 87.8 °F 85.7 °F 53.6 °F 31% 30.06 in - East 10.4 mph - N/A   Clear
2:00 PM 91 °F - 65 °F 32% 30.03 in 19 mi East 9.2 mph - -  
2:00 PM 91.4 °F 89.4 °F 55.4 °F 29% 30.06 in - East 10.4 mph - N/A   Clear
3:00 PM 93.2 °F 91.3 °F 55.4 °F 28% 30.06 in - East 8.1 mph - N/A   Clear
4:00 PM 95.0 °F - 51.8 °F 23% 30.04 in - East 8.1 mph - N/A   Clear
5:00 PM 96.8 °F - 50.0 °F 20% 30.04 in - ESE 6.9 mph - N/A   Clear
6:00 PM 98.6 °F - 50.0 °F 19% 30.01 in - East 5.8 mph - N/A   Clear
7:00 PM 96.8 °F - 48.2 °F 19% 29.98 in - East 6.9 mph - N/A   Clear
8:00 PM 97 °F - 62 °F 22% 29.94 in 19 mi ENE 5.8 mph - -  
8:00 PM 96.8 °F - 51.8 °F 22% 29.98 in - Variable 2.3 mph - N/A   Clear
9:00 PM 93.2 °F 91.3 °F 55.4 °F 28% 29.98 in - Variable 1.2 mph - N/A   Clear